SL-8 DEB *, 3965

Orbit data source: Space-Track

SL-8 DEB *, 3965 is space debris in LEO originally from a launch on Mon, 15 Mar 1965 UTC launched from the Tyuratam Missile And Space Complex (TTMTR). Debris objects in space refer to the collection of defunct objects orbiting the Earth. Examples of debris include non-operational satellites, rocket bodies, and fragments generated from explosions, collisions, or faulty payload assembly.

Loading next visibility...
Identifier
3965, 1965-020EY
Orbit
LEO
Country
Flag of CISCIS
Related business
Manufacturer
Unknown
Mission
Spacecraft
Bus & Motor
Unknown
Mass
Unknown
Launch date (UTC)
1965-03-15 (61 years ago)
Launch vehicle
Unknown
Launch site
Tyuratam Missile And Space Complex (TTMTR)
Object type
Payload
Rocket body
Debris
Shape & HBR
Unknown shape, 0.1 m
Radar Cross Section
Medium (>0.1 m² and <1 m²)

Expand to show TLE details & history
Last TLE update: 1 week ago

TLE from 1 week ago
0 SL-8 DEB *
1 03965U 65020EY  26152.20682458 -.00000121  00000-0 -25915-3 0  9998
2 03965  56.2987  86.5928 0268861 271.3401 235.7911 12.27693060747405
Epoch: 2026-06-01T04:57Z
TLE epoch observation values (Epoch: 2026-06-01T04:57:49.643Z)
Latitude
28.85666°
Longitude
-79.0161°
Altitude
1,684.806 km
Speed
6.98 km/s
True Right ascension
16h 20m 33s
True Declination
28° 43' 42"
Sunlit
Object was in full shadow at epoch
Visualization orbit readout
Latitude
Unknown
Longitude
Unknown
Altitude
Unknown
Speed
Unknown
Apparent Right ascension
Unknown
Apparent Declination
Unknown
Sunlit
N/A
Visualization observer readout
Local Sidereal Time
12:32:58
Azimuth
Unknown
Elevation
Unknown
Doppler factor
Unknown
Orbital elements
Apogee altitude
1,772.4 km
Perigee altitude
1,345.603 km
Semi-major axis
7,937.139 km
Eccentricity
0.02689
Inclination
56.2987°
RAAN
86.5928°
Arg. of periapsis
271.3401°
True anomaly
233.29127°
Mean anomaly
235.7911°
Eccentric anomaly
234.53642°
Mean motion
3.06936 °/min
Orbital period
117.29 mins
BSTAR
-0.00025915
Loading maneuver chart data...
Computing Atmospheric mass density...
Loading historical data...
Loading historical data...
Loading historical data...
Loading historical data...
Loading historical data...
Loading historical data...
Loading historical data...

Documentation

Showing up to 5 results
|